{"data":{"norad_id":53552,"epoch":"2026-05-24T23:23:55.521888Z","epoch_age_seconds":80677,"freshness":"FRESH","line1":"1 53552U 22101AB  26144.97494817 -.00000337  00000+0 -31038-5 0  9996","line2":"2 53552  53.2152  81.6652 0001145  81.2272 278.8849 15.08837922208473","mean_motion":15.08837922,"eccentricity":0.0001145,"inclination_deg":53.2152,"raan_deg":81.6652,"arg_perigee_deg":81.2272,"mean_anomaly_deg":278.8849,"bstar":-3.1038e-6,"rev_number":20847,"period_min":95.437686116163,"perigee_km":538.95764255428,"apogee_km":540.54183861787,"semimajor_km":6917.8867405861,"source":"CELESTRAK","updated_at":"2026-05-25T13:38:17.444428Z"}}